Starlink 3207

operational
NORAD ID: 49756 Int'l Des: 2021-115 Owner: SPXS Country: US Constellation: starlink
LEOCIRCULAR

About Starlink 3207

Description loading...

Live Position

Loading 3D Globe...

Upcoming Passes

Altitude History

Altitude vs Time

uPlot chart will show altitude changes over time

Two-Line Element Set

1 49756U 21115AJ 26035.43456529 -.00002807 00000-0 -15830-3 0 9994
2 49756 53.2174 288.4115 0001540 73.3996 286.7165 15.08846763230650
Epoch: Feb 4, 2026 • Age: 13 hours

Current Status

Altitude 540.2 km
Velocity 7.60 km/s
Sub-Earth Point 22.80°N, 44.67°W
Launch Date Dec 2, 2021
Age 4.1 years
Type internet

Technical Details

Classification Payload
Mass 290.00 kg
Dry Mass 270.00 kg
Total Mass 290.00 kg
Length 0.20 m
Diameter 2.80 m
Span 9.00 m
Shape Box + pan
Manufacturer SPXS
Bus Type Starlink
Phase Status In Orbit
Owner/State SPXS/US

Large Constellations

Loading constellations...